Карточка аэропорта UNTT

Внимание!
Информация на этой странице в стадии наполнения.
Если вы не увидели какой-то информации, или заметили неточность - пожалуйста сообщите нам!
Спасибо!
Команда RU-STAFF
Название аэропортаБогашево
Название аэропорта (англ.)Bogashevo
Превышение597 ft. (182 m.)
Координаты56°22.2', 85°12.6'
Высота перехода1000m
Эшелон переходаQFE>=743mm:FL040; QFE<743mm:FL050
Коды ответчика5230-5247
Зона ОрВДНовосибирск РПИ (UNNT)
Данные METARUNTT 150700Z VRB02MPS 9999 SCT043TCU 29/16 Q1009 R21/090060 NOSIG RMK QFE741
Проноз погоды (TAF)UNTT 150500Z 1506/1515 04003G08MPS 9999 SCT040CB
NOTAMshow/hide NOTAM
AWOS   TABLE

Информация о ВПП

ВПП Длина ВПП (м.) Покрытие Курс ВПП Частота ILS
032500Асфальтобетон25 
212500Асфальтобетон205110.3

Диспетчерские позиции




Спутниковое изображение